Hourly Weather Lalmikor

Today, 23 April, Friday

Time Temperature Precipitation Wind Pressure Humidity
00:00 +8°C° 0 mm 2 mps 702 mmHg 61%
01:00 +8°C° 0 mm 2 mps 701 mmHg 64%
02:00 +8°C° 0 mm 2 mps 701 mmHg 64%
03:00 +8°C° 0 mm 2 mps 701 mmHg 64%
04:00 +7°C° 0 mm 2 mps 701 mmHg 64%
05:00 +9°C° 0 mm 2 mps 701 mmHg 58%
06:00 +10°C° 0 mm 2 mps 702 mmHg 52%
07:00 +13°C° 0 mm 2 mps 702 mmHg 47%
08:00 +15°C° 0 mm 2 mps 702 mmHg 42%
09:00 +17°C° 0 mm 3 mps 702 mmHg 37%
10:00 +19°C° 0 mm 3 mps 702 mmHg 33%
11:00 +20°C° 0 mm 3 mps 702 mmHg 31%
12:00 +21°C° 0 mm 4 mps 702 mmHg 29%
13:00 +22°C° 0 mm 4 mps 702 mmHg 27%
14:00 +22°C° 0 mm 5 mps 701 mmHg 27%
15:00 +21°C° 0 mm 5 mps 701 mmHg 27%
16:00 +21°C° 0 mm 5 mps 701 mmHg 28%
17:00 +19°C° 0 mm 5 mps 700 mmHg 32%
18:00 +17°C° 0 mm 4 mps 700 mmHg 36%
19:00 +14°C° 0 mm 3 mps 700 mmHg 41%
20:00 +14°C° 0 mm 3 mps 700 mmHg 41%
21:00 +14°C° 0 mm 2 mps 700 mmHg 41%
22:00 +14°C° 0 mm 2 mps 699 mmHg 42%
23:00 +13°C° 0 mm 2 mps 699 mmHg 43%

Tomorrow, 24 April, Saturday

Time Temperature Precipitation Wind Pressure Humidity
00:00 +13°C° 0 mm 2 mps 699 mmHg 44%
01:00 +13°C° 0 mm 1 mps 698 mmHg 45%
02:00 +13°C° 0 mm 1 mps 698 mmHg 44%
03:00 +13°C° 0 mm 1 mps 698 mmHg 44%
04:00 +13°C° 0 mm 1 mps 698 mmHg 43%
05:00 +14°C° 0 mm 1 mps 699 mmHg 40%
06:00 +16°C° 0 mm 1 mps 699 mmHg 38%
07:00 +16°C° 0 mm 0 mps 700 mmHg 35%
08:00 +20°C° 0 mm 1 mps 700 mmHg 31%
09:00 +21°C° 0 mm 2 mps 700 mmHg 28%
10:00 +24°C° 0 mm 2 mps 700 mmHg 24%
11:00 +24°C° 0 mm 2 mps 700 mmHg 22%
12:00 +25°C° 0 mm 3 mps 700 mmHg 21%
13:00 +25°C° 0 mm 3 mps 700 mmHg 19%
14:00 +25°C° 0 mm 3 mps 700 mmHg 22%
15:00 +24°C° 0 mm 3 mps 701 mmHg 24%
16:00 +24°C° 0 mm 3 mps 701 mmHg 27%
17:00 +21°C° 0 mm 3 mps 700 mmHg 31%
18:00 +19°C° 0 mm 2 mps 700 mmHg 36%
19:00 +17°C° 0 mm 2 mps 700 mmHg 40%
20:00 +17°C° 0 mm 2 mps 700 mmHg 40%
21:00 +16°C° 0 mm 2 mps 700 mmHg 39%
22:00 +16°C° 0 mm 1 mps 700 mmHg 38%
23:00 +16°C° 0 mm 1 mps 700 mmHg 39%

Day after tomorrow, 25 April, Sunday

Time Temperature Precipitation Wind Pressure Humidity
00:00 +15°C° 0 mm 2 mps 700 mmHg 39%
01:00 +15°C° 0 mm 2 mps 700 mmHg 40%
02:00 +15°C° 0 mm 2 mps 699 mmHg 41%
03:00 +14°C° 0 mm 2 mps 699 mmHg 43%
04:00 +14°C° 0 mm 2 mps 699 mmHg 44%
05:00 +16°C° 0 mm 2 mps 700 mmHg 42%
06:00 +17°C° 0 mm 2 mps 700 mmHg 40%
07:00 +19°C° 0 mm 2 mps 700 mmHg 38%
08:00 +21°C° 0 mm 3 mps 701 mmHg 34%
09:00 +22°C° 0 mm 3 mps 701 mmHg 30%
10:00 +25°C° 0 mm 4 mps 701 mmHg 26%
11:00 +26°C° 0 mm 4 mps 701 mmHg 25%
12:00 +26°C° 0 mm 4 mps 701 mmHg 25%
13:00 +27°C° 0 mm 5 mps 701 mmHg 24%
14:00 +26°C° 0 mm 5 mps 701 mmHg 25%
15:00 +26°C° 0 mm 5 mps 700 mmHg 26%
16:00 +26°C° 0 mm 5 mps 700 mmHg 26%
17:00 +23°C° 0 mm 4 mps 700 mmHg 29%
18:00 +21°C° 0 mm 4 mps 700 mmHg 31%
19:00 +19°C° 0 mm 3 mps 700 mmHg 34%
20:00 +19°C° 0 mm 3 mps 700 mmHg 35%
21:00 +18°C° 0 mm 3 mps 700 mmHg 36%
22:00 +18°C° 0 mm 3 mps 699 mmHg 37%
23:00 +17°C° 0 mm 3 mps 699 mmHg 39%

26 April, Monday

Time Temperature Precipitation Wind Pressure Humidity
00:00 +17°C° 0 mm 3 mps 699 mmHg 41%
01:00 +16°C° 0 mm 3 mps 699 mmHg 43%
02:00 +16°C° 0 mm 3 mps 699 mmHg 44%
03:00 +16°C° 0 mm 3 mps 698 mmHg 44%
04:00 +16°C° 0 mm 3 mps 698 mmHg 45%
05:00 +17°C° 0 mm 3 mps 698 mmHg 43%
06:00 +18°C° 0 mm 3 mps 699 mmHg 41%
07:00 +20°C° 0 mm 3 mps 699 mmHg 40%
08:00 +21°C° 0 mm 4 mps 699 mmHg 36%
09:00 +23°C° 0 mm 4 mps 699 mmHg 32%
10:00 +25°C° 0 mm 5 mps 699 mmHg 29%
11:00 +26°C° 0 mm 5 mps 699 mmHg 29%
12:00 +26°C° 0 mm 5 mps 699 mmHg 29%
13:00 +26°C° 0 mm 5 mps 699 mmHg 29%
14:00 +26°C° 0 mm 5 mps 698 mmHg 30%
15:00 +26°C° 0 mm 5 mps 698 mmHg 32%
16:00 +25°C° 0 mm 5 mps 698 mmHg 34%
17:00 +23°C° 0 mm 4 mps 698 mmHg 36%
18:00 +21°C° 0 mm 4 mps 697 mmHg 38%
19:00 +20°C° 0 mm 3 mps 697 mmHg 40%
20:00 +19°C° 0 mm 3 mps 697 mmHg 40%
21:00 +19°C° 0 mm 2 mps 696 mmHg 40%
22:00 +18°C° 0 mm 2 mps 696 mmHg 41%
23:00 +18°C° 0 mm 2 mps 696 mmHg 41%

27 April, Tuesday

Time Temperature Precipitation Wind Pressure Humidity
00:00 +18°C° 0 mm 2 mps 696 mmHg 42%
01:00 +18°C° 0 mm 2 mps 696 mmHg 42%
02:00 +17°C° 0 mm 2 mps 695 mmHg 43%
03:00 +18°C° 0 mm 1 mps 695 mmHg 43%
04:00 +18°C° 0 mm 1 mps 695 mmHg 43%
05:00 +20°C° 0 mm 1 mps 696 mmHg 41%
06:00 +22°C° 0 mm 1 mps 696 mmHg 38%
07:00 +23°C° 0 mm 1 mps 696 mmHg 36%
08:00 +25°C° 0 mm 1 mps 696 mmHg 33%
09:00 +27°C° 0 mm 2 mps 697 mmHg 31%
10:00 +28°C° 0 mm 2 mps 697 mmHg 28%
11:00 +29°C° 0 mm 2 mps 697 mmHg 26%
12:00 +30°C° 0 mm 2 mps 696 mmHg 24%
13:00 +31°C° 0 mm 2 mps 696 mmHg 22%
14:00 +31°C° 0 mm 2 mps 696 mmHg 22%
15:00 +31°C° 0 mm 3 mps 696 mmHg 23%
16:00 +31°C° 0 mm 3 mps 696 mmHg 23%
17:00 +29°C° 0 mm 3 mps 696 mmHg 27%
18:00 +27°C° 0 mm 2 mps 695 mmHg 31%
19:00 +24°C° 0 mm 1 mps 695 mmHg 36%
20:00 +24°C° 0 mm 1 mps 695 mmHg 35%
21:00 +23°C° 0 mm 1 mps 695 mmHg 35%
22:00 +23°C° 0 mm 1 mps 695 mmHg 34%
23:00 +23°C° 0 mm 1 mps 695 mmHg 35%

28 April, Wednesday

Time Temperature Precipitation Wind Pressure Humidity
00:00 +22°C° 0 mm 1 mps 695 mmHg 35%
01:00 +22°C° 0 mm 1 mps 695 mmHg 36%
02:00 +22°C° 0 mm 1 mps 695 mmHg 36%
03:00 +22°C° 0 mm 1 mps 695 mmHg 36%
04:00 +21°C° 0 mm 1 mps 695 mmHg 36%
05:00 +23°C° 0 mm 1 mps 696 mmHg 34%
06:00 +25°C° 0 mm 1 mps 696 mmHg 32%
07:00 +27°C° 0 mm 1 mps 697 mmHg 30%
08:00 +29°C° 0 mm 1 mps 697 mmHg 26%
09:00 +30°C° 0 mm 1 mps 697 mmHg 22%
10:00 +32°C° 0 mm 1 mps 697 mmHg 18%
11:00 +33°C° 0 mm 1 mps 697 mmHg 17%
12:00 +35°C° 0 mm 2 mps 697 mmHg 15%
13:00 +35°C° 0 mm 3 mps 696 mmHg 14%
14:00 +35°C° 0 mm 3 mps 696 mmHg 14%
15:00 +35°C° 0 mm 3 mps 696 mmHg 14%
16:00 +34°C° 0 mm 3 mps 696 mmHg 15%
17:00 +31°C° 0 mm 3 mps 696 mmHg 17%
18:00 +29°C° 0 mm 2 mps 696 mmHg 20%
19:00 +26°C° 0 mm 1 mps 695 mmHg 22%
20:00 +26°C° 0 mm 1 mps 695 mmHg 22%
21:00 +25°C° 0 mm 1 mps 696 mmHg 22%
22:00 +25°C° 0 mm 1 mps 696 mmHg 22%
23:00 +24°C° 0 mm 1 mps 695 mmHg 22%
Show more